Time,TemperatureF,DewpointF,PressureIn,WindDirection,WindDirectionDegrees,WindSpeedMPH,WindSpeedGustMPH,Humidity,HourlyPrecipIn,Conditions,Clouds,dailyrainin,SoftwareType,DateUTC
2013-06-10 00:02:00,50.0,49.0,29.97,SW,217,0.0,0.0,95,0.00,,,0.00,,2013-06-10 07:02:00,
2013-06-10 00:22:00,50.0,49.0,29.97,SW,217,0.0,0.0,95,0.00,,,0.00,,2013-06-10 07:22:00,
2013-06-10 00:32:00,50.0,49.0,29.97,SW,217,0.0,0.0,95,0.00,,,0.00,,2013-06-10 07:32:00,
2013-06-10 00:42:00,50.0,49.0,29.97,SW,217,0.0,0.0,95,0.00,,,0.00,,2013-06-10 07:42:00,
2013-06-10 00:52:00,50.0,49.0,29.97,West,268,0.0,0.0,95,0.00,,,0.00,,2013-06-10 07:52:00,
2013-06-10 01:12:00,50.0,49.0,29.97,West,268,0.0,0.0,95,0.00,,,0.00,,2013-06-10 08:12:00,
2013-06-10 01:21:00,50.0,49.0,29.96,West,266,0.0,1.0,95,0.00,,,0.00,,2013-06-10 08:21:00,
2013-06-10 01:31:00,50.0,49.0,29.96,West,266,0.0,1.0,95,0.00,,,0.00,,2013-06-10 08:31:00,
2013-06-10 01:42:00,50.0,49.0,29.96,West,266,0.0,1.0,95,0.00,,,0.00,,2013-06-10 08:42:00,
2013-06-10 01:52:00,50.0,49.0,29.96,West,266,0.0,-999.0,95,-99.99,,,-99.99,,2013-06-10 08:52:00,
2013-06-10 02:01:00,50.0,49.0,29.96,West,265,0.0,-999.0,95,-99.99,,,-99.99,,2013-06-10 09:01:00,
2013-06-10 02:12:00,50.0,49.0,29.96,West,265,0.0,-999.0,95,-99.99,,,-99.99,,2013-06-10 09:12:00,
2013-06-10 02:22:00,50.0,49.0,29.97,NE,44,0.0,-999.0,96,-99.99,,,-99.99,,2013-06-10 09:22:00,
2013-06-10 02:32:00,50.0,49.0,29.97,WSW,246,0.0,-999.0,96,-99.99,,,-99.99,,2013-06-10 09:32:00,
2013-06-10 02:42:00,50.0,49.0,29.97,WSW,246,0.0,-999.0,96,-99.99,,,-99.99,,2013-06-10 09:42:00,
2013-06-10 02:53:00,50.0,49.0,29.97,SSW,196,0.0,-999.0,96,-99.99,,,-99.99,,2013-06-10 09:53:00,
2013-06-10 03:02:00,49.0,48.0,29.97,SSW,196,0.0,-999.0,96,-99.99,,,-99.99,,2013-06-10 10:02:00,
2013-06-10 03:12:00,49.0,48.0,29.97,SSW,196,0.0,-999.0,96,-99.99,,,-99.99,,2013-06-10 10:12:00,
2013-06-10 03:22:00,49.0,48.0,29.96,SSW,196,0.0,-999.0,96,-99.99,,,-99.99,,2013-06-10 10:22:00,
2013-06-10 03:33:00,49.0,48.0,29.96,SSW,196,0.0,-999.0,96,-99.99,,,-99.99,,2013-06-10 10:33:00,
2013-06-10 03:42:00,49.0,48.0,29.96,SSW,196,0.0,-999.0,96,-99.99,,,-99.99,,2013-06-10 10:42:00,
2013-06-10 03:52:00,49.0,48.0,29.94,WNW,299,0.0,-999.0,96,-99.99,,,-99.99,,2013-06-10 10:52:00,
2013-06-10 04:02:00,49.0,48.0,29.94,WNW,298,0.0,-999.0,96,-99.99,,,-99.99,,2013-06-10 11:02:00,
2013-06-10 04:12:00,49.0,48.0,29.94,WNW,298,0.0,-999.0,96,-99.99,,,-99.99,,2013-06-10 11:12:00,
2013-06-10 04:22:00,49.0,48.0,29.93,WNW,292,0.0,-999.0,96,-99.99,,,-99.99,,2013-06-10 11:22:00,
2013-06-10 04:31:00,49.0,48.0,29.93,NE,40,0.0,-999.0,96,-99.99,,,-99.99,,2013-06-10 11:31:00,
2013-06-10 04:42:00,49.0,48.0,29.93,NE,40,0.0,-999.0,96,-99.99,,,-99.99,,2013-06-10 11:42:00,
2013-06-10 04:52:00,49.0,48.0,29.95,NE,40,0.0,-999.0,96,-99.99,,,-99.99,,2013-06-10 11:52:00,
2013-06-10 05:02:00,49.0,48.0,29.95,NE,40,0.0,-999.0,96,-99.99,,,-99.99,,2013-06-10 12:02:00,
2013-06-10 05:12:00,49.0,48.0,29.95,NE,40,0.0,-999.0,96,-99.99,,,-99.99,,2013-06-10 12:12:00,
2013-06-10 05:22:00,49.0,48.0,29.95,NE,40,0.0,-999.0,96,-99.99,,,-99.99,,2013-06-10 12:22:00,
2013-06-10 05:32:00,49.0,48.0,29.95,NE,40,0.0,-999.0,97,-99.99,,,-99.99,,2013-06-10 12:32:00,
2013-06-10 05:42:00,49.0,48.0,29.95,NE,40,0.0,-999.0,97,-99.99,,,-99.99,,2013-06-10 12:42:00,
2013-06-10 05:52:00,49.0,48.0,29.96,NE,40,0.0,-999.0,97,-99.99,,,-99.99,,2013-06-10 12:52:00,
2013-06-10 06:02:00,49.0,48.0,29.96,NE,40,0.0,-999.0,97,-99.99,,,-99.99,,2013-06-10 13:02:00,
2013-06-10 06:11:00,49.0,48.0,29.96,NE,40,0.0,-999.0,97,-99.99,,,-99.99,,2013-06-10 13:11:00,
2013-06-10 06:22:00,49.0,48.0,29.96,NE,55,0.0,-999.0,97,-99.99,,,-99.99,,2013-06-10 13:22:00,
2013-06-10 06:32:00,49.0,48.0,29.96,NE,55,0.0,-999.0,97,-99.99,,,-99.99,,2013-06-10 13:32:00,
2013-06-10 06:42:00,49.0,48.0,29.96,NE,55,0.0,-999.0,97,-99.99,,,-99.99,,2013-06-10 13:42:00,
2013-06-10 06:52:00,49.0,48.0,29.95,NE,55,0.0,-999.0,97,-99.99,,,-99.99,,2013-06-10 13:52:00,
2013-06-10 07:02:00,49.0,48.0,29.95,NE,55,0.0,-999.0,97,-99.99,,,-99.99,,2013-06-10 14:02:00,
2013-06-10 07:11:00,49.0,48.0,29.96,NE,55,0.0,-999.0,97,-99.99,,,-99.99,,2013-06-10 14:11:00,
2013-06-10 07:22:00,49.0,48.0,29.96,NE,55,0.0,-999.0,97,-99.99,,,-99.99,,2013-06-10 14:22:00,
2013-06-10 07:32:00,49.0,48.0,29.96,NE,55,0.0,-999.0,97,-99.99,,,-99.99,,2013-06-10 14:32:00,
2013-06-10 07:42:00,49.0,48.0,29.96,NE,55,0.0,-999.0,97,-99.99,,,-99.99,,2013-06-10 14:42:00,
2013-06-10 07:52:00,49.0,48.0,29.96,SSW,207,0.0,-999.0,97,-99.99,,,-99.99,,2013-06-10 14:52:00,
2013-06-10 08:01:00,49.0,48.0,29.96,SSW,206,0.0,-999.0,97,-99.99,,,-99.99,,2013-06-10 15:01:00,
2013-06-10 08:12:00,49.0,48.0,29.96,SSW,206,0.0,-999.0,97,-99.99,,,-99.99,,2013-06-10 15:12:00,
2013-06-10 08:22:00,49.0,48.0,29.97,East,98,0.0,-999.0,97,-99.99,,,-99.99,,2013-06-10 15:22:00,
2013-06-10 08:32:00,49.0,48.0,29.97,SSW,198,1.0,-999.0,97,-99.99,,,-99.99,,2013-06-10 15:32:00,
2013-06-10 08:43:00,50.0,49.0,29.97,SSE,162,0.0,-999.0,97,-99.99,,,-99.99,,2013-06-10 15:43:00,
2013-06-10 08:53:00,50.0,49.0,29.97,SSE,162,0.0,-999.0,97,-99.99,,,-99.99,,2013-06-10 15:53:00,
2013-06-10 09:02:00,50.0,49.0,29.97,SSW,203,0.0,-999.0,97,-99.99,,,-99.99,,2013-06-10 16:02:00,
2013-06-10 09:12:00,50.0,49.0,29.97,SSW,203,0.0,-999.0,97,-99.99,,,-99.99,,2013-06-10 16:12:00,
2013-06-10 09:22:00,50.0,49.0,29.99,ESE,122,0.0,-999.0,97,-99.99,,,-99.99,,2013-06-10 16:22:00,
2013-06-10 09:33:00,51.0,50.0,29.99,ESE,122,0.0,-999.0,97,-99.99,,,-99.99,,2013-06-10 16:33:00,
2013-06-10 09:42:00,51.0,50.0,29.99,ESE,122,0.0,-999.0,97,-99.99,,,-99.99,,2013-06-10 16:42:00,
2013-06-10 09:52:00,51.0,50.0,29.99,ESE,122,0.0,-999.0,97,-99.99,,,-99.99,,2013-06-10 16:52:00,
2013-06-10 10:02:00,51.0,50.0,29.99,ESE,122,0.0,-999.0,97,-99.99,,,-99.99,,2013-06-10 17:02:00,
2013-06-10 10:14:00,51.0,50.0,30.00,SSE,158,0.0,-999.0,97,-99.99,,,-99.99,,2013-06-10 17:14:00,
2013-06-10 10:26:00,51.0,50.0,30.00,SSE,158,0.0,-999.0,97,-99.99,,,-99.99,,2013-06-10 17:26:00,
2013-06-10 10:38:00,51.0,50.0,30.00,SSE,158,0.0,-999.0,96,-99.99,,,-99.99,,2013-06-10 17:38:00,
2013-06-10 10:48:00,51.0,50.0,30.01,SSW,213,0.0,-999.0,96,-99.99,,,-99.99,,2013-06-10 17:48:00,
2013-06-10 10:58:00,51.0,50.0,30.01,SSW,213,0.0,-999.0,96,-99.99,,,-99.99,,2013-06-10 17:58:00,
2013-06-10 11:06:00,52.0,51.0,30.01,South,188,0.0,-999.0,97,-99.99,,,-99.99,,2013-06-10 18:06:00,
2013-06-10 11:14:00,52.0,51.0,30.01,South,188,0.0,-999.0,97,-99.99,,,-99.99,,2013-06-10 18:14:00,
2013-06-10 11:24:00,53.0,52.0,30.01,SE,145,0.0,-999.0,96,-99.99,,,-99.99,,2013-06-10 18:24:00,
2013-06-10 11:34:00,53.0,52.0,30.01,South,175,0.0,-999.0,95,-99.99,,,-99.99,,2013-06-10 18:34:00,
2013-06-10 11:47:00,53.0,52.0,30.01,South,175,0.0,-999.0,95,-99.99,,,-99.99,,2013-06-10 18:47:00,
2013-06-10 11:55:00,55.0,52.0,30.01,WNW,292,0.0,-999.0,91,-99.99,,,-99.99,,2013-06-10 18:55:00,
2013-06-10 12:02:00,55.0,52.0,30.01,ESE,110,1.0,-999.0,88,-99.99,,,-99.99,,2013-06-10 19:02:00,
2013-06-10 12:12:00,55.0,52.0,30.01,ESE,110,1.0,-999.0,88,-99.99,,,-99.99,,2013-06-10 19:12:00,
2013-06-10 12:22:00,58.0,52.0,30.02,SSW,207,1.0,-999.0,80,-99.99,,,-99.99,,2013-06-10 19:22:00,
2013-06-10 12:32:00,59.0,52.0,30.02,WSW,244,1.0,-999.0,79,-99.99,,,-99.99,,2013-06-10 19:32:00,
2013-06-10 12:42:00,58.0,52.0,30.02,SSW,211,0.0,-999.0,80,-99.99,,,-99.99,,2013-06-10 19:42:00,
2013-06-10 12:53:00,58.0,52.0,30.02,SSW,211,0.0,-999.0,80,-99.99,,,-99.99,,2013-06-10 19:53:00,
2013-06-10 13:02:00,58.0,52.0,30.02,SW,224,0.0,-999.0,81,-99.99,,,-99.99,,2013-06-10 20:02:00,
2013-06-10 13:11:00,58.0,52.0,30.02,SW,224,0.0,-999.0,81,-99.99,,,-99.99,,2013-06-10 20:11:00,
2013-06-10 13:22:00,57.0,52.0,30.03,SSW,211,0.0,-999.0,84,-99.99,,,-99.99,,2013-06-10 20:22:00,
2013-06-10 13:32:00,56.0,52.0,30.03,SW,232,1.0,-999.0,85,-99.99,,,-99.99,,2013-06-10 20:32:00,
2013-06-10 13:42:00,56.0,52.0,30.03,SW,232,1.0,-999.0,85,-99.99,,,-99.99,,2013-06-10 20:42:00,
2013-06-10 13:52:00,55.0,52.0,30.03,SE,146,0.0,-999.0,88,-99.99,,,-99.99,,2013-06-10 20:52:00,
2013-06-10 14:02:00,54.0,51.0,30.03,SW,214,0.0,-999.0,90,-99.99,,,-99.99,,2013-06-10 21:02:00,
2013-06-10 14:12:00,54.0,51.0,30.03,SW,214,0.0,-999.0,90,-99.99,,,-99.99,,2013-06-10 21:12:00,
2013-06-10 14:22:00,55.0,52.0,30.04,WSW,242,0.0,-999.0,91,-99.99,,,-99.99,,2013-06-10 21:22:00,
2013-06-10 14:33:00,56.0,52.0,30.04,SSE,148,1.0,-999.0,87,-99.99,,,-99.99,,2013-06-10 21:33:00,
2013-06-10 14:42:00,56.0,52.0,30.04,SSE,148,1.0,-999.0,87,-99.99,,,-99.99,,2013-06-10 21:42:00,
2013-06-10 14:53:00,56.0,52.0,30.05,SSE,161,0.0,-999.0,86,-99.99,,,-99.99,,2013-06-10 21:53:00,
2013-06-10 15:02:00,55.0,51.0,30.05,WNW,284,1.0,-999.0,86,-99.99,,,-99.99,,2013-06-10 22:02:00,
2013-06-10 15:12:00,55.0,51.0,30.05,WNW,284,1.0,-999.0,86,-99.99,,,-99.99,,2013-06-10 22:12:00,
2013-06-10 15:22:00,55.0,52.0,30.05,SW,234,0.0,-999.0,89,-99.99,,,-99.99,,2013-06-10 22:22:00,
2013-06-10 15:33:00,54.0,51.0,30.05,ENE,61,0.0,-999.0,90,-99.99,,,-99.99,,2013-06-10 22:33:00,
2013-06-10 15:42:00,53.0,50.0,30.05,SSW,205,1.0,-999.0,90,-99.99,,,-99.99,,2013-06-10 22:42:00,
2013-06-10 15:52:00,53.0,50.0,30.05,SSW,205,1.0,-999.0,90,-99.99,,,-99.99,,2013-06-10 22:52:00,
2013-06-10 16:02:00,54.0,51.0,30.05,South,180,2.0,-999.0,89,-99.99,,,-99.99,,2013-06-10 23:02:00,
2013-06-10 16:11:00,54.0,50.0,30.05,SW,236,1.0,-999.0,86,-99.99,,,-99.99,,2013-06-10 23:11:00,
2013-06-10 16:22:00,54.0,50.0,30.05,SW,236,1.0,-999.0,86,-99.99,,,-99.99,,2013-06-10 23:22:00,
2013-06-10 16:32:00,54.0,50.0,30.05,South,191,2.0,-999.0,87,-99.99,,,-99.99,,2013-06-10 23:32:00,
2013-06-10 16:42:00,54.0,50.0,30.05,South,191,2.0,-999.0,87,-99.99,,,-99.99,,2013-06-10 23:42:00,
2013-06-10 16:52:00,57.0,52.0,30.05,WNW,303,1.0,-999.0,82,-99.99,,,-99.99,,2013-06-10 23:52:00,
2013-06-10 17:01:00,58.0,52.0,30.05,SW,219,0.0,-999.0,80,-99.99,,,-99.99,,2013-06-11 00:01:00,
2013-06-10 17:11:00,57.0,52.0,30.05,South,190,1.0,-999.0,82,-99.99,,,-99.99,,2013-06-11 00:11:00,
2013-06-10 17:22:00,57.0,52.0,30.05,South,190,1.0,-999.0,82,-99.99,,,-99.99,,2013-06-11 00:22:00,
2013-06-10 17:32:00,57.0,52.0,30.05,West,271,0.0,-999.0,83,-99.99,,,-99.99,,2013-06-11 00:32:00,
2013-06-10 17:42:00,57.0,52.0,30.04,South,180,0.0,-999.0,82,-99.99,,,-99.99,,2013-06-11 00:42:00,
2013-06-10 17:52:00,57.0,52.0,30.04,South,180,0.0,-999.0,82,-99.99,,,-99.99,,2013-06-11 00:52:00,
2013-06-10 18:02:00,57.0,52.0,30.04,South,186,0.0,-999.0,83,-99.99,,,-99.99,,2013-06-11 01:02:00,
2013-06-10 18:11:00,57.0,52.0,30.03,SE,126,0.0,-999.0,82,-99.99,,,-99.99,,2013-06-11 01:11:00,
2013-06-10 18:22:00,57.0,52.0,30.03,SE,126,0.0,-999.0,82,-99.99,,,-99.99,,2013-06-11 01:22:00,
2013-06-10 18:31:00,57.0,52.0,30.03,ESE,122,0.0,-999.0,82,-99.99,,,-99.99,,2013-06-11 01:31:00,
2013-06-10 18:42:00,56.0,51.0,30.03,NNW,337,0.0,-999.0,83,-99.99,,,-99.99,,2013-06-11 01:42:00,
2013-06-10 18:52:00,56.0,51.0,30.03,NNW,337,0.0,-999.0,83,-99.99,,,-99.99,,2013-06-11 01:52:00,
2013-06-10 19:02:00,56.0,51.0,30.03,NNW,337,0.0,-999.0,84,-99.99,,,-99.99,,2013-06-11 02:02:00,
2013-06-10 19:11:00,56.0,51.0,30.03,NNW,337,0.0,-999.0,84,-99.99,,,-99.99,,2013-06-11 02:11:00,
2013-06-10 19:21:00,57.0,52.0,30.03,NNW,337,0.0,-999.0,84,-99.99,,,-99.99,,2013-06-11 02:21:00,
2013-06-10 19:31:00,57.0,52.0,30.03,NNW,336,0.0,-999.0,83,-99.99,,,-99.99,,2013-06-11 02:31:00,
2013-06-10 19:42:00,55.0,50.0,30.03,NNW,336,0.0,-999.0,84,-99.99,,,-99.99,,2013-06-11 02:42:00,
2013-06-10 19:52:00,55.0,50.0,30.03,NNW,336,0.0,-999.0,84,-99.99,,,-99.99,,2013-06-11 02:52:00,
2013-06-10 20:01:00,55.0,51.0,30.03,NNW,336,0.0,-999.0,85,-99.99,,,-99.99,,2013-06-11 03:01:00,
2013-06-10 20:12:00,54.0,50.0,30.04,NNW,336,0.0,-999.0,86,-99.99,,,-99.99,,2013-06-11 03:12:00,
2013-06-10 20:22:00,54.0,50.0,30.04,NNW,336,0.0,-999.0,86,-99.99,,,-99.99,,2013-06-11 03:22:00,
2013-06-10 20:32:00,53.0,49.0,30.04,NNW,336,0.0,-999.0,87,-99.99,,,-99.99,,2013-06-11 03:32:00,
2013-06-10 20:42:00,52.0,49.0,30.05,NNW,336,0.0,-999.0,88,-99.99,,,-99.99,,2013-06-11 03:42:00,
2013-06-10 20:53:00,52.0,49.0,30.05,NNW,336,0.0,-999.0,88,-99.99,,,-99.99,,2013-06-11 03:53:00,
2013-06-10 21:02:00,51.0,48.0,30.05,NNW,336,0.0,-999.0,89,-99.99,,,-99.99,,2013-06-11 04:02:00,
2013-06-10 21:12:00,51.0,48.0,30.05,NNW,336,0.0,-999.0,89,-99.99,,,-99.99,,2013-06-11 04:12:00,
2013-06-10 21:22:00,51.0,48.0,30.05,NNW,336,0.0,-999.0,90,-99.99,,,-99.99,,2013-06-11 04:22:00,
2013-06-10 21:33:00,50.0,47.0,30.05,NNW,336,0.0,-999.0,91,-99.99,,,-99.99,,2013-06-11 04:33:00,
2013-06-10 21:42:00,50.0,47.0,30.05,NNW,336,0.0,-999.0,91,-99.99,,,-99.99,,2013-06-11 04:42:00,
2013-06-10 21:52:00,50.0,48.0,30.05,NNW,336,0.0,-999.0,92,-99.99,,,-99.99,,2013-06-11 04:52:00,
2013-06-10 22:02:00,50.0,48.0,30.05,NNW,336,0.0,-999.0,93,-99.99,,,-99.99,,2013-06-11 05:02:00,
2013-06-10 22:11:00,50.0,48.0,30.05,NNW,336,0.0,-999.0,93,-99.99,,,-99.99,,2013-06-11 05:11:00,
2013-06-10 22:22:00,50.0,48.0,30.07,NNW,336,0.0,-999.0,93,-99.99,,,-99.99,,2013-06-11 05:22:00,
2013-06-10 22:31:00,50.0,48.0,30.07,NNW,336,0.0,-999.0,93,-99.99,,,-99.99,,2013-06-11 05:31:00,
2013-06-10 22:42:00,50.0,48.0,30.07,NNW,336,0.0,-999.0,93,-99.99,,,-99.99,,2013-06-11 05:42:00,
2013-06-10 22:52:00,49.0,47.0,30.08,NNW,336,0.0,-999.0,94,-99.99,,,-99.99,,2013-06-11 05:52:00,
2013-06-10 23:02:00,49.0,47.0,30.08,NNW,336,0.0,-999.0,94,-99.99,,,-99.99,,2013-06-11 06:02:00,
2013-06-10 23:12:00,49.0,47.0,30.08,NNW,336,0.0,-999.0,94,-99.99,,,-99.99,,2013-06-11 06:12:00,
2013-06-10 23:22:00,49.0,47.0,30.08,NNW,336,0.0,-999.0,94,-99.99,,,-99.99,,2013-06-11 06:22:00,
2013-06-10 23:32:00,49.0,47.0,30.08,NNW,336,0.0,-999.0,94,-99.99,,,-99.99,,2013-06-11 06:32:00,
2013-06-10 23:42:00,49.0,48.0,30.06,NNW,336,0.0,-999.0,95,-99.99,,,-99.99,,2013-06-11 06:42:00,
2013-06-10 23:52:00,49.0,48.0,30.06,NNW,336,0.0,-999.0,95,-99.99,,,-99.99,,2013-06-11 06:52:00,